Flag for United Kingdom Weather past 2 weeks in Oxford, England, United Kingdom

Now
48 °F

Overcast.


Feels Like: 44 °F
Forecast: 37 / 48 °F
Wind: 10 mph from Southwest

Location: Benson

Current Time: Jan 26, 2015 at 5:11:25 AM

Latest Report: Jan 26, 2015 at 3:50 AM


Visibility: N/A

Pressure: 30.18 "Hg

Humidity: 94%

Dew point: 46 °F

Location of OxfordLocation

Historic Weather in Oxford — Graph

°F

Oxford temperature yesterday

Maximum temperature yesterday: 48 °F (at 11:50 PM)
Minimum temperature yesterday: 23 °F (at 2:50 AM)
Average temperature yesterday: 39 °F

Past Weeks' High & Low Weather Summary

 TemperatureHumidityPressure
High54 °F (Jan 12, 11:50 PM)100% (Jan 15, 12:50 AM)30.48 "Hg (Jan 15, 12:50 AM)
Low18 °F (Jan 23, 12:50 AM)61% (Jan 14, 2:50 PM)29.09 "Hg (Jan 15, 1:50 AM)
Average38 °F85%29.88 "Hg
* Reported Jan 11 3:50 AM — Jan 26 3:50 AM, Oxford, Weather by CustomWeather, © 2014

Note: Actual official high and low records may vary slightly from our data, if they occured in-between our weather recording intervals... More about our weather records

Advertising

Oxford weather history for previous 24 hours

 ConditionsComfort  
Time TempWeatherWind HumidityBarometerVisibility
3:50 AM
Jan 26
48 °FOvercast.10 mph94%30.18 "HgN/A
2:50 AM48 °FPassing clouds.9 mph87%30.21 "HgN/A
1:50 AM48 °FOvercast.10 mph87%30.21 "HgN/A
12:50 AM48 °FOvercast.10 mph87%30.24 "HgN/A
11:50 PM
Jan 25
48 °FOvercast.8 mph87%30.27 "HgN/A
10:50 PM46 °FOvercast.6 mph93%30.27 "HgN/A
9:50 PM46 °FOvercast.7 mph87%30.27 "HgN/A
8:50 PM46 °FOvercast.9 mph87%30.30 "HgN/A
7:50 PM46 °FOvercast.8 mph87%30.30 "HgN/A
6:50 PM46 °FOvercast.6 mph87%30.33 "HgN/A
5:50 PM45 °FOvercast.7 mph87%30.33 "HgN/A
4:50 PM45 °FOvercast.7 mph87%30.36 "HgN/A
3:50 PM46 °FPartly sunny.9 mph82%30.36 "HgN/A
2:50 PM46 °FPassing clouds.13 mph76%30.36 "HgN/A
1:50 PM46 °FOvercast.12 mph76%30.39 "HgN/A
12:50 PM45 °FPartly sunny.9 mph81%30.39 "HgN/A
11:50 AM43 °FPartly sunny.10 mph81%30.42 "HgN/A
10:50 AM41 °FSunny.10 mph81%30.42 "Hg10 mi
9:50 AM39 °FPartly sunny.7 mph81%30.45 "HgN/A
8:50 AM37 °FPartly sunny.7 mph87%30.45 "HgN/A
7:50 AM34 °FPassing clouds.6 mph93%30.45 "HgN/A
6:50 AM32 °FPassing clouds.3 mph93%30.45 "HgN/A
5:50 AM28 °FPassing clouds.2 mph100%30.45 "HgN/A
Weather by CustomWeather, © 2014

See weather overviewHow to use our weather pages